Simultaneous Nadir Overpasses (SNOs) Predictions

Prediction of SNOs between GOES-15 and NOAA-20 Satellite Orbit:

Table of predicted SNOs for the next 14.0 days since TLE Epoch: 2/7/2020
Index Date Time (GOES-15) GOES-15 Lat,Lon NOAA-20 Lat,Lon Distance(km) Time Diff (sec)
1 02/08/2020 09:59:15 -0.00,-128.01 0.18,-128.85 95.94 80
2 02/09/2020 09:43:10 0.00,-127.97 -0.80,-124.31 416.80 80
3 02/10/2020 22:05:07 -0.00,-127.93 -0.38,-129.62 192.40 80
4 02/11/2020 21:43:43 0.00,-127.89 0.61,-125.08 319.86 80
5 02/13/2020 10:05:31 -0.00,-127.82 0.59,-130.35 288.28 80
6 02/14/2020 09:49:28 -0.01,-127.79 -0.46,-125.82 223.91 80
7 02/15/2020 22:11:24 0.00,-127.74 -0.77,-131.12 385.64 80
8 02/16/2020 21:50:01 -0.00,-127.70 0.27,-126.59 126.31 80
9 02/18/2020 10:11:49 0.01,-127.62 0.93,-131.86 482.85 80
10 02/19/2020 09:55:45 0.00,-127.57 -0.06,-127.32 28.71 80




NCC Satellite Simultaneous Nadir Overpasses (SNOs) Prediction Service
